Location: Zagreb
(45.8000°N, 16.0000°E)
Time: 00:16:04
(UTC+01:00)

Transit 2A Rocket - Pass Details

Date: 10 October 2020
Orbit: 586 x 916 km, 66.7° (Epoch: 28 October)

Event Time Altitude Azimuth Distance (km) Brightness Sun altitude
Rises 22:17:38 0° 330° (NNW) 3,423 9.1 -40.2°
Reaches altitude 10° 22:20:30 10° 341° (NNW) 2,433 8.1 -40.6°
Enters shadow 22:21:38 15° 348° (NNW) 2,076 7.6 -40.8°
Maximum altitude 22:25:24 30° 42° (NE) 1,359 - -41.3°
Drops below altitude 10° 22:29:54 10° 104° (ESE) 2,226 - -41.8°
Sets 22:32:24 0° 115° (ESE) 3,086 - -42.1°
